Location: Altenst�hlen
(53.5567°N, 8.9425°E)
Time: 12:45:34
(UTC+00:00)

STARLINK-56 - Pass Details

Date: 23 October 2019
Orbit: 548 x 551 km, 53.0° (Epoch: 21 November)

Event Time Altitude Azimuth Distance (km) Brightness Sun altitude
Rises 16:43:00 0° 264° (W) 2,718 9.8 -5.5°
Reaches altitude 10° 16:45:13 10° 264° (W) 1,825 8.1 -5.8°
Maximum altitude 16:49:23 84° 177° (S) 559 3.7 -6.4°
Drops below altitude 10° 16:53:32 10° 89° (E) 1,828 5.6 -7.0°
Enters shadow 16:53:49 - 89° (E) 1,937 5.7 -7.0°
